1512349201.21,29552,3.56,72730.8,-16.41,-20.99,-20.35,0,*6D
1512349202.48,29553,3.56,72732.3,-16.41,-20.99,-20.35,0,*6C
1512349203.73,29554,3.56,72728.8,-16.41,-21.03,-20.25,0,*68
1512349205.0,29555,3.56,72728.5,-16.41,-20.99,-20.35,0,*6A
1512349206.24,29556,3.56,72728.8,-16.41,-20.93,-20.19,0,*6D
1512349207.5,29557,3.56,72730.3,-16.41,-20.99,-20.39,0,*64
1512349208.72,29558,3.56,72726.3,-16.41,-21.09,-20.39,0,*63
1512349209.94,29559,3.56,72724.0,-16.41,-21.09,-20.39,0,*62
1512349211.22,29560,3.56,72730.8,-16.41,-20.99,-20.19,0,*62
1512349212.49,29561,3.56,72726.8,-16.41,-20.99,-20.19,0,*63
1512349213.73,29562,3.56,72724.5,-16.41,-20.93,-20.35,0,*64
1512349214.96,29563,3.56,72730.0,-16.41,-21.13,-20.39,0,*60
1512349216.23,29564,3.56,72730.8,-16.43,-21.13,-20.53,0,*69
1512349217.45,29565,3.56,72726.3,-16.41,-21.09,-20.39,0,*6D
1512349218.7,29566,3.56,72728.3,-16.41,-21.09,-20.49,0,*69
1512349219.92,29567,3.56,72728.8,-16.41,-21.09,-20.39,0,*6F
1512349221.17,29568,3.56,72728.5,-16.41,-21.09,-20.49,0,*67
1512349222.42,29569,3.56,72724.5,-16.41,-21.13,-20.49,0,*6D
1512349223.67,29570,3.56,72728.5,-16.41,-21.13,-20.49,0,*65
1512349224.91,29571,3.56,72724.3,-16.43,-21.13,-20.69,0,*64
1512349226.21,29572,3.56,72728.8,-16.43,-21.33,-20.53,0,*6C
1512349227.44,29573,3.56,72726.8,-16.41,-21.13,-20.43,0,*6C
1512349228.71,29574,3.56,72724.8,-16.43,-21.03,-20.25,0,*68
1512349229.98,29575,3.56,72726.8,-16.41,-20.99,-20.19,0,*66
1512349231.26,29576,3.56,72730.3,-16.43,-21.03,-20.39,0,*67
1512349232.51,29577,3.56,72726.5,-16.43,-21.13,-20.43,0,*6A
1512349233.76,29578,3.56,72724.8,-16.41,-21.09,-20.49,0,*66
1512349235.03,29579,3.56,72728.8,-16.43,-21.13,-20.53,0,*65
1512349236.28,29580,3.56,72730.0,-16.43,-21.13,-20.43,0,*62
1512349237.55,29581,3.56,72730.0,-16.43,-21.13,-20.53,0,*62
1512349238.85,29582,3.56,72726.3,-16.43,-21.27,-20.53,0,*66
1512349240.1,29583,3.56,72728.5,-16.43,-21.13,-20.43,0,*61
1512349241.34,29584,3.56,72728.5,-16.43,-21.13,-20.43,0,*66
1512349242.59,29585,3.56,72730.5,-16.43,-21.13,-20.43,0,*67
1512349243.87,29586,3.56,72730.3,-16.43,-21.13,-20.53,0,*65
1512349245.14,29587,3.56,72728.3,-16.43,-21.17,-20.53,0,*60
1512349246.39,29588,3.56,72732.3,-16.43,-21.13,-20.43,0,*6A
1512349247.66,29589,3.56,72728.3,-16.41,-20.99,-20.35,0,*6B
1512349248.94,29590,3.56,72724.5,-16.43,-21.03,-20.39,0,*6F
1512349250.21,29591,3.56,72728.0,-16.43,-21.03,-20.43,0,*63
1512349251.49,29592,3.56,72730.0,-16.43,-21.03,-20.39,0,*6D
1512349252.74,29593,3.56,72730.3,-16.43,-21.17,-20.43,0,*64
1512349253.99,29594,3.56,72728.3,-16.43,-21.13,-20.43,0,*67
1512349255.23,29595,3.56,72730.3,-16.43,-21.13,-20.43,0,*66
1512349256.48,29596,3.56,72728.0,-16.43,-21.13,-20.43,0,*65
1512349257.73,29597,3.56,72730.3,-16.43,-21.13,-20.43,0,*64
1512349258.95,29598,3.56,72730.0,-16.45,-21.17,-20.43,0,*69
1512349260.2,29599,3.56,72730.8,-16.45,-21.13,-20.53,0,*6D
1512349261.45,29600,3.56,72726.8,-16.43,-21.17,-20.43,0,*6D
1512349262.7,29601,3.56,72726.5,-16.43,-21.17,-20.43,0,*6C
1512349263.95,29602,3.56,72730.8,-16.43,-21.17,-20.43,0,*6F
1512349265.2,29603,3.56,72730.0,-16.43,-21.17,-20.43,0,*6E
1512349266.44,29604,3.56,72726.5,-16.45,-21.17,-20.53,0,*6E
1512349267.69,29605,3.56,72726.0,-16.45,-21.13,-20.53,0,*6B
1512349268.94,29606,3.56,72728.8,-16.45,-21.33,-20.59,0,*60
1512349270.18,29607,3.56,72728.3,-16.45,-21.17,-20.53,0,*6D
1512349271.46,29608,3.56,72726.5,-16.45,-21.27,-20.53,0,*61
1512349272.68,29609,3.56,72726.8,-16.45,-21.17,-20.59,0,*69
1512349273.92,29610,3.56,72730.8,-16.45,-21.17,-20.53,0,*6B
1512349275.17,29611,3.56,72730.5,-16.45,-21.13,-20.53,0,*6E
1512349276.42,29612,3.56,72732.3,-16.45,-21.13,-20.53,0,*6D
1512349277.67,29613,3.56,72728.8,-16.49,-21.33,-20.59,0,*68
1512349278.92,29614,3.56,72730.3,-16.45,-21.27,-20.59,0,*66
1512349280.14,29615,3.5,72726.5,-16.49,-21.39,-20.63,0,*6D
1512349281.39,29616,3.56,72724.5,-16.45,-21.27,-20.59,0,*64
1512349282.63,29617,3.56,72732.5,-16.45,-21.33,-20.69,0,*63
1512349283.88,29618,3.56,72730.5,-16.49,-21.23,-20.59,0,*62
1512349285.11,29619,3.56,72728.5,-16.49,-21.17,-20.63,0,*6D
1512349286.36,29620,3.56,72728.5,-16.49,-21.23,-20.63,0,*60
1512349287.6,29621,3.56,72728.3,-16.45,-21.13,-20.53,0,*6D
1512349288.85,29622,3.56,72730.5,-16.49,-21.17,-20.49,0,*6D
1512349290.1,29623,3.56,72730.0,-16.45,-21.13,-20.53,0,*6F
1512349291.38,29624,3.56,72726.8,-16.49,-21.33,-20.49,0,*6D
1512349292.6,29625,3.56,72730.5,-16.49,-21.39,-20.73,0,*6F
1512349293.82,29626,3.56,72726.8,-16.49,-21.39,-20.73,0,*6C
1512349295.04,29627,3.56,72730.5,-16.49,-21.39,-20.73,0,*6D
1512349296.29,29628,3.56,72730.5,-16.49,-21.33,-20.73,0,*68
1512349297.54,29629,3.56,72724.0,-16.49,-21.33,-20.73,0,*69
1512349298.79,29630,3.56,72728.0,-16.49,-21.23,-20.59,0,*68
1512349300.07,29631,3.56,72730.3,-16.51,-21.23,-20.73,0,*68
1512349301.34,29632,3.56,72730.8,-16.51,-21.23,-20.63,0,*6A
1512349302.62,29633,3.56,72732.0,-16.51,-21.23,-20.63,0,*6B
1512349303.9,29634,3.56,72730.8,-16.51,-21.23,-20.63,0,*6C
1512349305.15,29635,3.56,72730.0,-16.49,-21.17,-20.49,0,*6B
1512349306.41,29636,3.56,72728.8,-16.49,-21.23,-20.43,0,*65
1512349307.66,29637,3.56,72728.3,-16.51,-21.17,-20.59,0,*61
1512349308.91,29638,3.56,72730.0,-16.51,-21.17,-20.59,0,*6E
1512349310.16,29639,3.56,72728.8,-16.51,-21.17,-20.63,0,*66
1512349311.44,29640,3.56,72730.3,-16.51,-21.33,-20.59,0,*67
1512349312.67,29641,3.56,72730.5,-16.53,-21.43,-20.69,0,*60
1512349313.95,29642,3.56,72730.3,-16.51,-21.33,-20.63,0,*6C
1512349315.23,29643,3.56,72728.8,-16.51,-21.23,-20.63,0,*6C
1512349316.47,29644,3.56,72728.5,-16.53,-21.39,-20.59,0,*6B
1512349317.73,29645,3.56,72730.8,-16.53,-21.39,-20.79,0,*68
1512349319.0,29646,3.56,72732.3,-16.51,-21.23,-20.63,0,*69
1512349320.29,29647,3.56,72726.3,-16.51,-21.23,-20.59,0,*61
1512349321.58,29648,3.56,72730.0,-16.53,-21.23,-20.53,0,*66
1512349322.86,29649,3.56,72730.3,-16.51,-21.17,-20.49,0,*69
1512349324.13,29650,3.56,72730.3,-16.51,-21.03,-20.43,0,*6E
1512349325.39,29651,3.56,72728.8,-16.53,-21.13,-20.35,0,*6D
1512349326.64,29652,3.56,72730.3,-16.51,-21.09,-20.43,0,*66
1512349327.89,29653,3.56,72730.5,-16.51,-21.09,-20.29,0,*6B
1512349329.15,29654,3.56,72728.0,-16.53,-21.13,-20.49,0,*63
1512349330.42,29655,3.56,72732.5,-16.53,-21.13,-20.49,0,*62
1512349331.71,29656,3.56,72726.0,-16.53,-21.27,-20.53,0,*6D
1512349332.98,29657,3.56,72726.8,-16.53,-21.39,-20.53,0,*63
1512349334.24,29658,3.56,72726.0,-16.53,-21.23,-20.63,0,*64
1512349335.51,29659,3.56,72728.5,-16.53,-21.23,-20.63,0,*65
1512349336.77,29660,3.56,72726.0,-16.53,-21.27,-20.69,0,*61
1512349338.04,29661,3.56,72728.5,-16.53,-21.27,-20.63,0,*6A
1512349339.28,29662,3.56,72730.0,-16.53,-21.39,-20.63,0,*66
1512349340.51,29663,3.56,72730.8,-16.53,-21.39,-20.69,0,*6D
1512349341.81,29664,3.56,72728.0,-16.53,-21.23,-20.53,0,*68
1512349343.1,29665,3.56,72732.5,-16.53,-21.27,-20.53,0,*6D
1512349344.39,29666,3.56,72728.0,-16.53,-21.23,-20.53,0,*6A
1512349345.65,29667,3.56,72732.0,-16.53,-21.09,-20.35,0,*63
1512349346.9,29668,3.56,72726.3,-16.51,-21.09,-20.43,0,*6F
1512349348.16,29669,3.56,72730.3,-16.53,-21.13,-20.49,0,*6D
1512349349.43,29670,3.56,72732.0,-16.53,-21.13,-20.49,0,*65
1512349350.7,29671,3.56,72730.3,-16.53,-21.23,-20.63,0,*6F
1512349351.99,29672,3.56,72730.5,-16.53,-21.27,-20.53,0,*6B
1512349353.26,29673,3.56,72730.8,-16.53,-21.23,-20.63,0,*6D
1512349354.5,29674,3.56,72726.8,-16.55,-21.23,-20.63,0,*6C
1512349355.77,29675,3.56,72730.8,-16.55,-21.27,-20.53,0,*6A
1512349357.04,29676,3.56,72728.8,-16.53,-21.23,-20.63,0,*68
1512349358.33,29677,3.56,72726.0,-16.53,-21.27,-20.53,0,*6E
1512349359.6,29678,3.56,72724.5,-16.53,-21.27,-20.63,0,*62
1512349360.89,29679,3.56,72730.8,-16.53,-21.27,-20.53,0,*60
1512349362.18,29680,3.56,72726.5,-16.53,-21.23,-20.53,0,*62
1512349363.45,29681,3.56,72726.3,-16.53,-21.13,-20.49,0,*6B
1512349364.71,29682,3.56,72728.3,-16.53,-21.09,-20.49,0,*63
1512349365.98,29683,3.56,72730.0,-16.55,-21.23,-20.53,0,*67
1512349367.25,29684,3.56,72728.5,-16.53,-21.23,-20.63,0,*65
1512349368.52,29685,3.56,72730.0,-16.55,-21.23,-20.53,0,*61
1512349369.79,29686,3.56,72726.5,-16.55,-21.23,-20.53,0,*62
1512349371.03,29687,3.56,72724.0,-16.55,-21.23,-20.63,0,*60
1512349372.3,29688,3.56,72730.3,-16.55,-21.23,-20.53,0,*6C
1512349373.57,29689,3.56,72726.3,-16.55,-21.23,-20.53,0,*6D
1512349374.82,29690,3.56,72728.3,-16.55,-21.23,-20.63,0,*66
1512349376.09,29691,3.56,72726.0,-16.55,-21.23,-20.53,0,*64
1512349377.36,29692,3.56,72728.0,-16.55,-21.23,-20.49,0,*6C
1512349378.6,29693,3.56,72730.0,-16.55,-20.99,-20.29,0,*6B
1512349379.89,29694,3.56,72728.0,-16.57,-20.99,-20.19,0,*6D
1512349381.18,29695,3.56,72726.8,-16.57,-20.99,-20.19,0,*6C
1512349382.42,29696,3.56,72724.0,-16.55,-20.99,-20.29,0,*6E
1512349383.66,29697,3.56,72728.5,-16.55,-21.13,-20.35,0,*61
1512349384.9,29698,3.56,72728.3,-16.55,-21.13,-20.49,0,*65
1512349386.14,29699,3.56,72728.8,-16.55,-20.99,-20.29,0,*61
1512349387.35,29700,3.56,72724.5,-16.55,-21.09,-20.29,0,*68
1512349388.57,29701,3.56,72728.5,-16.55,-21.13,-20.29,0,*62
1512349389.82,29702,3.56,72726.8,-16.53,-21.09,-20.35,0,*61
1512349391.07,29703,3.56,72726.5,-16.55,-21.13,-20.49,0,*66
1512349392.31,29704,3.56,72726.5,-16.55,-21.13,-20.49,0,*61
1512349393.57,29705,3.56,72726.0,-16.57,-21.13,-20.35,0,*69
1512349394.82,29706,3.56,72724.3,-16.55,-21.13,-20.49,0,*63
1512349396.06,29707,3.56,72728.3,-16.55,-21.13,-20.49,0,*62
1512349397.33,29708,3.56,72730.5,-16.57,-21.13,-20.53,0,*64
1512349398.62,29709,3.56,72726.0,-16.53,-21.23,-20.49,0,*69
1512349399.9,29710,3.56,72728.0,-16.55,-21.23,-20.49,0,*67
1512349401.17,29711,3.56,72728.3,-16.55,-21.23,-20.49,0,*66
1512349402.44,29712,3.56,72726.5,-16.55,-21.23,-20.53,0,*6E
1512349403.71,29713,3.56,72726.0,-16.55,-21.23,-20.53,0,*6F
1512349405.0,29714,3.56,72728.8,-16.57,-21.23,-20.35,0,*6A
1512349406.24,29715,3.56,72728.8,-16.55,-21.13,-20.49,0,*61
1512349407.51,29716,3.56,72730.0,-16.55,-21.23,-20.53,0,*6A
1512349408.78,29717,3.56,72728.3,-16.53,-21.27,-20.63,0,*6A
1512349410.02,29718,3.56,72730.5,-16.55,-21.23,-20.63,0,*67
1512349411.29,29719,3.56,72726.5,-16.57,-21.23,-20.63,0,*64
1512349412.56,29720,3.56,72730.0,-16.57,-21.27,-20.69,0,*60
1512349413.8,29721,3.56,72728.5,-16.57,-21.39,-20.69,0,*6E
1512349415.09,29722,3.56,72726.3,-16.57,-21.27,-20.53,0,*6B
1512349416.36,29723,3.56,72732.0,-16.57,-21.23,-20.63,0,*6D
1512349417.61,29724,3.56,72726.3,-16.55,-21.27,-20.63,0,*6C
1512349418.87,29725,3.56,72730.8,-16.57,-21.23,-20.69,0,*61
1512349420.14,29726,3.56,72730.5,-16.57,-21.27,-20.63,0,*6C
1512349421.44,29727,3.56,72728.5,-16.53,-21.23,-20.53,0,*6E
1512349422.7,29728,3.56,72730.5,-16.55,-21.23,-20.53,0,*67
1512349423.94,29729,3.56,72728.3,-16.55,-21.13,-20.35,0,*65
1512349425.21,29730,3.56,72726.0,-16.57,-21.13,-20.53,0,*6F
1512349426.48,29731,3.56,72728.8,-16.55,-21.23,-20.49,0,*64
1512349427.78,29732,3.56,72730.0,-16.57,-21.23,-20.53,0,*6E
1512349429.07,29733,3.56,72730.5,-16.57,-21.23,-20.53,0,*6F
1512349430.34,29734,3.56,72730.3,-16.55,-21.27,-20.53,0,*6E
1512349431.64,29735,3.56,72728.3,-16.57,-21.23,-20.53,0,*69
1512349432.91,29736,3.56,72728.0,-16.55,-21.23,-20.53,0,*68
1512349434.2,29737,3.56,72726.5,-16.57,-21.27,-20.53,0,*6F
1512349435.47,29738,3.56,72724.5,-16.57,-21.27,-20.63,0,*63
1512349436.76,29739,3.56,72726.3,-16.57,-21.23,-20.35,0,*65
1512349438.0,29740,3.56,72724.8,-16.57,-21.09,-20.29,0,*6E
1512349439.24,29741,3.56,72726.3,-16.55,-21.13,-20.35,0,*6B
1512349440.48,29742,3.56,72730.8,-16.55,-21.13,-20.49,0,*63
1512349441.72,29743,3.56,72726.3,-16.55,-21.13,-20.49,0,*62
1512349443.0,29744,3.56,72726.8,-16.57,-21.13,-20.49,0,*67
1512349444.27,29745,3.56,72728.0,-16.57,-21.13,-20.49,0,*66
1512349445.51,29746,3.56,72728.3,-16.57,-21.13,-20.63,0,*6D
1512349446.8,29747,3.56,72728.0,-16.57,-21.23,-20.53,0,*6C
1512349448.1,29748,3.56,72728.3,-16.57,-21.23,-20.49,0,*68
1512349449.37,29749,3.56,72728.8,-16.55,-21.23,-20.49,0,*6B
1512349450.65,29750,3.56,72730.5,-16.55,-21.23,-20.49,0,*63
1512349451.94,29751,3.56,72728.5,-16.57,-21.23,-20.53,0,*6B
1512349453.21,29752,3.56,72728.8,-16.57,-21.23,-20.63,0,*6B
1512349454.51,29753,3.56,72728.0,-16.57,-21.23,-20.53,0,*69
1512349455.78,29754,3.56,72726.5,-16.57,-21.27,-20.63,0,*69
1512349457.05,29755,3.56,72728.5,-16.57,-21.27,-20.69,0,*62
1512349458.31,29756,3.56,72728.5,-16.57,-21.27,-20.69,0,*61
1512349459.6,29757,3.56,72730.5,-16.57,-21.27,-20.79,0,*61
1512349460.87,29758,3.56,72730.5,-16.57,-21.27,-20.63,0,*65
1512349462.16,29759,3.56,72728.3,-16.57,-21.23,-20.53,0,*63
1512349463.43,29760,3.56,72724.3,-16.57,-21.13,-20.35,0,*6A
1512349464.7,29761,3.56,72724.0,-16.57,-21.13,-20.49,0,*60
1512349465.99,29762,3.56,72726.5,-16.57,-21.23,-20.35,0,*6B
1512349467.29,29763,3.56,72728.0,-16.57,-21.23,-20.49,0,*61
1512349468.59,29764,3.56,72728.8,-16.57,-21.23,-20.49,0,*66
1512349469.88,29765,3.56,72728.0,-16.57,-21.23,-20.49,0,*67
1512349471.13,29766,3.56,72724.3,-16.59,-21.33,-20.59,0,*6A
1512349472.38,29767,3.56,72726.3,-16.59,-21.27,-20.59,0,*6E
1512349473.62,29768,3.56,72726.8,-16.59,-21.33,-20.73,0,*6C
1512349474.89,29769,3.56,72724.0,-16.57,-21.27,-20.63,0,*67
1512349476.11,29770,3.56,72726.3,-16.55,-21.39,-20.63,0,*62
1512349477.34,29771,3.56,72726.0,-16.61,-21.43,-20.69,0,*63
1512349478.59,29772,3.56,72728.5,-16.59,-21.27,-20.59,0,*6A
1512349479.82,29773,3.56,72728.3,-16.59,-21.17,-20.59,0,*68
1512349481.06,29774,3.56,72728.0,-16.59,-21.27,-20.59,0,*6C
1512349482.31,29775,3.56,72726.3,-16.59,-21.27,-20.59,0,*6D
1512349483.56,29776,3.56,72726.5,-16.59,-21.27,-20.59,0,*6E
1512349484.81,29777,3.56,72730.0,-16.59,-21.27,-20.59,0,*6F
1512349486.08,29778,3.56,72728.3,-16.59,-21.27,-20.53,0,*6A
1512349487.33,29779,3.56,72724.0,-16.59,-21.33,-20.59,0,*64
1512349488.57,29780,3.56,72724.5,-16.59,-21.33,-20.59,0,*62
1512349489.81,29781,3.56,72730.0,-16.59,-21.33,-20.69,0,*60
1512349491.05,29782,3.56,72730.5,-16.59,-21.33,-20.69,0,*63
1512349492.27,29783,3.56,72730.3,-16.59,-21.47,-20.73,0,*6A
1512349493.49,29784,3.56,72728.3,-16.59,-21.47,-20.73,0,*6D
1512349494.76,29785,3.56,72730.5,-16.61,-21.33,-20.59,0,*6C
1512349496.01,29786,3.56,72728.0,-16.59,-21.27,-20.59,0,*61
1512349497.3,29787,3.56,72730.0,-16.61,-21.27,-20.53,0,*61
1512349498.6,29788,3.56,72726.3,-16.61,-21.27,-20.53,0,*6E
1512349499.84,29789,3.56,72724.8,-16.59,-21.27,-20.69,0,*6D
1512349501.11,29790,3.56,72726.0,-16.61,-21.27,-20.69,0,*6E
1512349502.35,29791,3.56,72728.3,-16.59,-21.27,-20.73,0,*6F
1512349503.59,29792,3.56,72726.5,-16.61,-21.43,-20.73,0,*65
1512349504.84,29793,3.56,72726.8,-16.59,-21.33,-20.59,0,*60
1512349506.11,29794,3.56,72724.3,-16.59,-21.27,-20.53,0,*68
1512349507.36,29795,3.56,72726.0,-16.61,-21.13,-20.39,0,*69
1512349508.6,29796,3.56,72726.8,-16.61,-21.17,-20.39,0,*6E
1512349509.83,29797,3.56,72726.8,-16.59,-21.17,-20.39,0,*64
1512349511.1,29798,3.56,72724.8,-16.61,-21.17,-20.53,0,*6C
1512349512.34,29799,3.56,72726.8,-16.59,-21.27,-20.59,0,*6F
1512349513.61,29800,3.56,72726.5,-16.61,-21.33,-20.59,0,*6E
1512349514.88,29801,3.56,72728.0,-16.61,-21.27,-20.69,0,*69
1512349516.17,29802,3.56,72726.0,-16.61,-21.27,-20.53,0,*63
1512349517.42,29803,3.56,72724.8,-16.61,-21.13,-20.39,0,*69
1512349518.71,29804,3.56,72726.3,-16.61,-21.03,-20.35,0,*63
1512349519.95,29805,3.56,72726.5,-16.59,-21.17,-20.35,0,*6C
1512349521.19,29806,3.56,72726.3,-16.59,-21.17,-20.35,0,*6F
1512349522.46,29807,3.56,72728.5,-16.61,-21.17,-20.53,0,*65
1512349523.73,29808,3.56,72726.0,-16.61,-21.17,-20.53,0,*6A
1512349524.98,29809,3.56,72724.5,-16.59,-21.13,-20.53,0,*64
1512349526.22,29810,3.56,72726.3,-16.61,-21.17,-20.39,0,*6F
1512349527.47,29811,3.56,72724.5,-16.59,-21.17,-20.53,0,*69
1512349528.69,29812,3.56,72726.5,-16.59,-21.17,-20.39,0,*66
1512349529.96,29813,3.56,72726.0,-16.61,-21.17,-20.53,0,*60
1512349531.21,29814,3.56,72726.5,-16.61,-21.17,-20.39,0,*6B
1512349532.47,29815,3.56,72726.8,-16.61,-21.13,-20.35,0,*62
1512349533.72,29816,3.56,72726.5,-16.59,-21.17,-20.53,0,*6E
1512349534.99,29817,3.56,72726.0,-16.61,-21.17,-20.53,0,*64
1512349536.25,29818,3.56,72730.5,-16.61,-21.33,-20.69,0,*64
1512349537.52,29819,3.56,72728.3,-16.61,-21.33,-20.69,0,*65
1512349538.79,29820,3.56,72730.3,-16.61,-21.27,-20.59,0,*69
1512349540.08,29821,3.56,72730.0,-16.61,-21.27,-20.53,0,*62
1512349541.33,29822,3.56,72726.5,-16.59,-21.27,-20.59,0,*60
1512349542.62,29823,3.56,72730.0,-16.61,-21.27,-20.53,0,*60
1512349543.9,29824,3.56,72730.0,-16.61,-21.27,-20.39,0,*6B
1512349545.16,29825,3.56,72728.0,-16.61,-21.13,-20.35,0,*61
1512349546.43,29826,3.56,72728.0,-16.61,-21.17,-20.53,0,*66
1512349547.67,29827,3.56,72724.0,-16.59,-21.17,-20.53,0,*6C
1512349548.94,29828,3.56,72726.3,-16.61,-21.13,-20.53,0,*6C
1512349550.22,29829,3.56,72730.3,-16.61,-21.27,-20.39,0,*66
1512349551.46,29830,3.56,72730.8,-16.61,-21.17,-20.59,0,*6B
1512349552.76,29831,3.56,72728.3,-16.61,-21.27,-20.53,0,*63
1512349554.03,29832,3.56,72728.5,-16.61,-21.33,-20.59,0,*6F
1512349555.27,29833,3.56,72730.8,-16.61,-21.43,-20.73,0,*61
1512349556.51,29834,3.56,72728.3,-16.61,-21.43,-20.73,0,*66
1512349557.75,29835,3.56,72730.3,-16.61,-21.47,-20.73,0,*63
1512349558.99,29836,3.56,72728.5,-16.61,-21.43,-20.73,0,*64
1512349560.28,29837,3.56,72726.3,-16.61,-21.33,-20.83,0,*6D
1512349561.52,29838,3.56,72728.3,-16.61,-21.43,-20.73,0,*6A
1512349562.74,29839,3.56,72728.0,-16.63,-21.47,-20.89,0,*68
1512349564.01,29840,3.56,72724.0,-16.61,-21.33,-20.73,0,*62
1512349565.28,29841,3.56,72730.8,-16.61,-21.33,-20.59,0,*6B
1512349566.55,29842,3.56,72730.0,-16.61,-21.33,-20.59,0,*68
1512349567.82,29843,3.56,72726.0,-16.61,-21.27,-20.59,0,*6C
1512349569.06,29844,3.56,72724.8,-16.63,-21.33,-20.43,0,*67
1512349570.28,29845,3.56,72722.8,-16.63,-21.39,-20.73,0,*6F
1512349571.52,29846,3.56,72726.8,-16.63,-21.33,-20.73,0,*66
1512349572.76,29847,3.56,72726.5,-16.63,-21.33,-20.59,0,*6F
1512349574.06,29848,3.56,72728.0,-16.61,-21.27,-20.53,0,*6D
1512349575.3,29849,3.56,72726.3,-16.63,-21.33,-20.59,0,*61
1512349576.55,29850,3.56,72726.5,-16.63,-21.23,-20.43,0,*63
1512349577.79,29851,3.56,72728.3,-16.63,-21.33,-20.73,0,*60
1512349579.02,29852,3.56,72726.8,-16.63,-21.39,-20.79,0,*63
1512349580.29,29853,3.56,72726.5,-16.65,-21.33,-20.63,0,*65
1512349581.53,29854,3.56,72724.8,-16.63,-21.23,-20.59,0,*6C
1512349582.78,29855,3.56,72726.5,-16.63,-21.23,-20.59,0,*6D
1512349584.03,29856,3.56,72726.3,-16.63,-21.23,-20.59,0,*6E
1512349585.28,29857,3.56,72726.5,-16.63,-21.23,-20.43,0,*64
1512349586.52,29858,3.56,72728.5,-16.63,-21.33,-20.43,0,*6A
1512349587.8,29859,3.56,72730.0,-16.61,-21.03,-20.35,0,*6B
1512349589.05,29860,3.56,72724.5,-16.63,-21.03,-20.29,0,*6E
1512349590.29,29861,3.56,72726.5,-16.63,-21.03,-20.39,0,*6E
1512349591.53,29862,3.56,72728.0,-16.65,-21.09,-20.29,0,*60
1512349592.74,29863,3.56,72724.8,-16.63,-21.09,-20.39,0,*66
1512349593.95,29864,3.56,72728.0,-16.63,-21.09,-20.29,0,*60
1512349595.19,29865,3.56,72726.5,-16.63,-21.03,-20.29,0,*6B
1512349596.46,29866,3.56,72728.0,-16.65,-21.23,-20.39,0,*6D
1512349597.68,29867,3.56,72726.5,-16.63,-21.17,-20.29,0,*6C
1512349598.95,29868,3.56,72724.8,-16.65,-21.23,-20.43,0,*6E
1512349600.19,29869,3.56,72728.0,-16.63,-21.33,-20.59,0,*63
1512349601.43,29870,3.56,72726.0,-16.65,-21.39,-20.63,0,*6E
1512349602.67,29871,3.56,72726.3,-16.63,-21.33,-20.73,0,*62
1512349603.89,29872,3.56,72726.5,-16.63,-21.39,-20.63,0,*6A
1512349605.11,29873,3.56,72730.0,-16.63,-21.39,-20.63,0,*6B
1512349606.34,29874,3.56,72724.5,-16.63,-21.47,-20.79,0,*6E
1512349607.56,29875,3.56,72726.5,-16.63,-21.39,-20.73,0,*6C
1512349608.77,29876,3.56,72726.0,-16.63,-21.39,-20.73,0,*6F
1512349609.99,29877,3.56,72728.0,-16.63,-21.39,-20.73,0,*6E
1512349611.2,29878,3.56,72728.8,-16.63,-21.39,-20.73,0,*61
1512349612.44,29879,3.56,72726.8,-16.65,-21.39,-20.73,0,*66
1512349613.68,29880,3.56,72728.8,-16.63,-21.33,-20.63,0,*6D
1512349614.92,29881,3.56,72726.3,-16.63,-21.33,-20.63,0,*6C
1512349616.16,29882,3.56,72724.0,-16.65,-21.39,-20.73,0,*62
1512349617.43,29883,3.56,72728.3,-16.65,-21.33,-20.63,0,*68
1512349618.67,29884,3.56,72730.0,-16.65,-21.39,-20.73,0,*64
1512349619.91,29885,3.56,72724.5,-16.65,-21.39,-20.63,0,*64
1512349621.15,29886,3.56,72726.0,-16.63,-21.33,-20.73,0,*6A
1512349622.39,29887,3.56,72724.5,-16.65,-21.39,-20.73,0,*67
1512349623.65,29888,3.56,72724.5,-16.65,-21.47,-20.79,0,*6B
1512349624.88,29889,3.56,72728.5,-16.65,-21.39,-20.73,0,*69
1512349626.17,29890,3.56,72726.3,-16.65,-21.33,-20.79,0,*61
1512349627.43,29891,3.56,72728.0,-16.65,-21.39,-20.79,0,*6A
1512349628.66,29892,3.56,72726.0,-16.65,-21.39,-20.73,0,*63
1512349629.93,29893,3.56,72724.5,-16.65,-21.23,-20.63,0,*68
1512349631.17,29894,3.56,72722.3,-16.65,-21.39,-20.73,0,*65
1512349632.44,29895,3.56,72726.5,-16.65,-21.33,-20.73,0,*6E
1512349633.71,29896,3.56,72720.5,-16.65,-21.23,-20.59,0,*64
1512349634.98,29897,3.56,72724.5,-16.65,-21.23,-20.43,0,*6E
1512349636.22,29898,3.56,72726.3,-16.65,-21.17,-20.43,0,*66
1512349637.49,29899,3.56,72724.5,-16.65,-21.23,-20.43,0,*60
1512349638.76,29900,3.56,72724.5,-16.65,-21.23,-20.43,0,*61
1512349640.03,29901,3.56,72726.5,-16.65,-21.23,-20.59,0,*6B
1512349641.3,29902,3.56,72728.3,-16.65,-21.33,-20.59,0,*69
1512349642.56,29903,3.56,72726.5,-16.65,-21.33,-20.59,0,*68
1512349643.83,29904,3.56,72726.3,-16.65,-21.33,-20.63,0,*66
1512349645.1,29905,3.56,72726.0,-16.65,-21.33,-20.63,0,*67
1512349646.33,29906,3.56,72726.0,-16.65,-21.39,-20.73,0,*6F
1512349647.6,29907,3.56,72726.0,-16.65,-21.23,-20.59,0,*6D
1512349648.87,29908,3.56,72728.3,-16.65,-21.03,-20.29,0,*67
1512349650.14,29909,3.56,72726.3,-16.67,-20.99,-20.35,0,*6B
1512349651.37,29910,3.56,72726.8,-16.67,-21.09,-20.35,0,*6B
1512349652.64,29911,3.56,72728.3,-16.65,-21.03,-20.29,0,*6F
1512349653.89,29912,3.56,72728.0,-16.65,-21.09,-20.15,0,*69
1512349655.13,29913,3.56,72726.5,-16.65,-21.09,-20.25,0,*6B
1512349656.37,29914,3.56,72730.0,-16.65,-21.09,-20.25,0,*6C
1512349657.61,29915,3.56,72732.5,-16.65,-21.09,-20.39,0,*60
1512349658.87,29916,3.56,72730.3,-16.65,-21.23,-20.29,0,*6A
1512349660.14,29917,3.56,72730.0,-16.65,-21.33,-20.59,0,*6D
1512349661.41,29918,3.56,72728.3,-16.65,-21.33,-20.43,0,*69
1512349662.68,29919,3.56,72726.8,-16.65,-21.23,-20.59,0,*62
1512349663.95,29920,3.56,72730.3,-16.65,-21.23,-20.59,0,*68
1512349665.19,29921,3.56,72726.8,-16.65,-21.39,-20.63,0,*6B
1512349666.43,29922,3.56,72732.5,-16.65,-21.39,-20.73,0,*69
1512349667.64,29923,3.56,72730.0,-16.63,-21.39,-20.63,0,*6F
1512349668.91,29924,3.56,72728.8,-16.65,-21.33,-20.73,0,*65
1512349670.17,29925,3.56,72730.0,-16.65,-21.33,-20.59,0,*6C
1512349671.44,29926,3.56,72726.0,-16.65,-21.33,-20.73,0,*67
1512349672.71,29927,3.56,72726.3,-16.65,-21.33,-20.43,0,*65
1512349673.97,29928,3.56,72724.0,-16.65,-21.33,-20.43,0,*6A
1512349675.22,29929,3.56,72724.0,-16.63,-21.23,-20.59,0,*67
1512349676.46,29930,3.56,72724.8,-16.65,-21.17,-20.43,0,*65
1512349677.73,29931,3.56,72724.3,-16.69,-21.27,-20.63,0,*69
1512349679.01,29932,3.56,72726.8,-16.67,-21.23,-20.49,0,*68
1512349680.26,29933,3.56,72726.0,-16.67,-21.23,-20.63,0,*61
1512349681.53,29934,3.56,72726.8,-16.67,-21.27,-20.49,0,*6A
1512349682.81,29935,3.56,72724.0,-16.67,-21.27,-20.49,0,*6B
1512349684.05,29936,3.56,72728.0,-16.67,-21.27,-20.63,0,*60
1512349685.32,29937,3.56,72728.0,-16.65,-21.23,-20.59,0,*6E
1512349686.59,29938,3.56,72728.3,-16.65,-21.23,-20.59,0,*61
1512349687.86,29939,3.56,72730.0,-16.65,-21.23,-20.59,0,*60
1512349689.11,29940,3.56,72730.3,-16.65,-21.17,-20.43,0,*62
1512349690.37,29941,3.56,72726.3,-16.67,-21.23,-20.35,0,*67
1512349691.6,29942,3.56,72724.5,-16.67,-21.13,-20.43,0,*66
1512349692.82,29943,3.56,72724.5,-16.67,-21.13,-20.43,0,*67
1512349694.06,29944,3.56,72730.0,-16.65,-21.17,-20.39,0,*6B
1512349695.33,29945,3.56,72728.3,-16.65,-21.23,-20.59,0,*6B
1512349696.6,29946,3.56,72730.0,-16.65,-21.23,-20.59,0,*68
1512349697.85,29947,3.56,72728.5,-16.65,-21.17,-20.39,0,*68
1512349699.08,29948,3.56,72730.8,-16.65,-21.09,-20.29,0,*69
1512349700.35,29949,3.56,72728.5,-16.65,-21.23,-20.39,0,*61
1512349701.62,29950,3.56,72728.8,-16.65,-21.23,-20.59,0,*6F
1512349702.86,29951,3.56,72730.5,-16.69,-21.43,-20.69,0,*67